EW2910 Weather Reports


time (UTC)temp
C
wind
direction
speed
KPH
gust
KPH
rain 1hr
cm
rain 24hr
cm
rain mn
cm
humidity
%
barometer
mb
20260510031604 23 0 0.0 0.0 0.00 0.00 0.00 88 1015.1
20260510024603 24 0 0.0 9.7 0.00 0.00 0.00 87 1015.2
20260510023100 24 34 4.8 11.3 0.00 0.00 0.00 87 1015.0
20260510021646 25 50 8.0 14.5 0.00 0.00 0.00 86 1014.7
20260510014601 25 51 6.4 17.7 0.00 0.00 0.00 84 1014.6
20260510013114 25 56 8.0 12.9 0.00 0.00 0.00 83 1014.3
20260510011600 25 54 9.7 16.1 0.00 0.00 0.00 82 1014.2
20260510004601 26 14 8.0 17.7 0.00 0.00 0.00 81 1013.6
20260510003100 26 44 8.0 24.1 0.00 0.00 0.00 80 1013.3
20260510001601 27 29 12.9 20.9 0.00 0.00 0.00 78 1013.2
20260510000100 28 355 9.7 24.1 0.00 0.00 0.00 74 1012.9
20260509234559 30 319 1.6 6.4 0.00 0.00 0.00 53 1012.4
20260509233102 30 225 1.6 11.3 0.00 0.00 0.00 54 1012.2
20260509231604 31 272 1.6 9.7 0.00 0.00 0.00 55 1012.1
20260509230100 31 0 3.2 11.3 0.00 0.00 0.00 55 1011.9
20260509224559 32 0 0.0 9.7 0.00 0.00 0.00 54 1011.7
20260509223102 33 0 1.6 14.5 0.00 0.00 0.00 52 1011.6
20260509221559 33 250 1.6 14.5 0.00 0.00 0.00 51 1011.3
20260509220100 33 238 4.8 12.9 0.00 0.00 0.00 51 1011.2
20260509214601 33 267 3.2 17.7 0.00 0.00 0.00 51 1011.2
20260509213115 34 238 4.8 14.5 0.00 0.00 0.00 50 1011.0
20260509211605 34 237 1.6 11.3 0.00 0.00 0.00 51 1011.0
20260509210105 35 259 3.2 14.5 0.00 0.00 0.00 48 1010.9
20260509204600 35 236 4.8 12.9 0.00 0.00 0.00 48 1010.8
20260509203103 35 255 3.2 22.5 0.00 0.00 0.00 49 1010.9
20260509201607 35 233 4.8 14.5 0.00 0.00 0.00 48 1011.0
20260509200104 35 206 6.4 14.5 0.00 0.00 0.00 49 1011.1
20260509194602 35 232 6.4 16.1 0.00 0.00 0.00 47 1011.3
20260509193059 35 266 6.4 19.3 0.00 0.00 0.00 47 1011.4
20260509191609 35 298 6.4 20.9 0.00 0.00 0.00 46 1011.6
20260509190100 34 176 4.8 25.7 0.00 0.00 0.00 48 1011.7
20260509184610 35 209 3.2 12.9 0.00 0.00 0.00 47 1011.9
20260509183101 35 227 12.9 27.4 0.00 0.00 0.00 48 1012.0
20260509181607 33 232 4.8 22.5 0.00 0.00 0.00 51 1012.1
20260509180115 34 257 9.7 17.7 0.00 0.00 0.00 49 1012.3
20260509174600 34 274 4.8 20.9 0.00 0.00 0.00 48 1012.4
20260509173107 34 219 8.0 19.3 0.00 0.00 0.00 47 1012.4
20260509171601 34 225 6.4 19.3 0.00 0.00 0.00 50 1012.7
20260509170106 33 288 4.8 17.7 0.00 0.00 0.00 55 1012.7
20260509164600 33 212 8.0 16.1 0.00 0.00 0.00 54 1013.0
20260509163104 32 243 4.8 17.7 0.00 0.00 0.00 56 1013.2
20260509161606 32 221 8.0 20.9 0.00 0.00 0.00 55 1013.2
20260509154559 31 226 4.8 12.9 0.00 0.00 0.00 61 1013.4
20260509153103 31 150 4.8 12.9 0.00 0.00 0.00 65 1013.6
20260509151557 30 0 4.8 11.3 0.00 0.00 0.00 68 1013.7
20260509150058 30 260 3.2 11.3 0.00 0.00 0.00 68 1013.8
20260509144557 28 224 4.8 14.5 0.00 0.00 0.00 74 1013.8
20260509143059 28 207 3.2 12.9 0.00 0.00 0.00 75 1013.9
20260509141557 27 189 0.0 9.7 0.00 0.00 0.00 78 1013.9
20260509140108 26 286 1.6 6.4 0.00 0.00 0.00 83 1013.7
20260509134556 26 96 0.0 6.4 0.00 0.00 0.00 83 1013.9
20260509133058 25 232 1.6 4.8 0.00 0.00 0.00 87 1014.0
20260509131559 23 123 3.2 8.0 0.00 0.00 0.00 91 1014.1
20260509130108 22 68 3.2 9.7 0.00 0.00 0.00 94 1014.1
20260509124559 22 15 4.8 9.7 0.00 0.00 0.00 95 1014.2
20260509123057 22 49 3.2 4.8 0.00 0.00 0.00 95 1014.0
20260509121601 22 12 3.2 6.4 0.00 0.00 0.00 96 1014.0
20260509120058 22 8 0.0 4.8 0.00 0.00 0.00 96 1013.9
20260509114559 22 0 0.0 0.0 0.00 0.00 0.00 96 1013.5
20260509113058 21 0 0.0 0.0 0.00 0.00 0.00 96 1013.3
20260509111559 21 0 0.0 0.0 0.00 0.00 0.00 96 1013.0
20260509110057 21 0 0.0 0.0 0.00 0.00 0.00 96 1012.9
20260509104603 21 0 0.0 0.0 0.00 0.00 0.00 96 1012.5
20260509103106 21 0 0.0 0.0 0.00 0.00 0.00 96 1012.5
20260509101620 21 0 0.0 0.0 0.00 0.00 0.00 96 1012.7
20260509094602 21 0 0.0 0.0 0.00 0.00 0.00 96 1012.4
20260509093100 21 0 0.0 0.0 0.00 0.00 0.00 96 1012.6
20260509091559 21 0 0.0 0.0 0.00 0.00 0.00 95 1012.7
20260509090108 21 0 0.0 0.0 0.00 0.00 0.00 95 1012.7
20260509084605 21 0 0.0 0.0 0.00 0.00 0.00 95 1012.7
20260509083111 22 0 0.0 6.4 0.00 0.00 0.00 95 1012.9
20260509081559 22 0 0.0 1.6 0.00 0.00 0.00 95 1013.0
20260509080100 22 0 0.0 0.0 0.00 0.00 0.00 94 1013.0
20260509074612 22 251 0.0 1.6 0.00 0.00 0.00 94 1012.9
20260509073108 22 0 0.0 3.2 0.00 0.00 0.00 94 1012.9
20260509071602 22 288 1.6 4.8 0.00 0.00 0.00 94 1013.0
20260509070059 22 0 0.0 3.2 0.00 0.00 0.00 93 1013.4
20260509064601 22 0 0.0 1.6 0.00 0.00 0.00 93 1013.6
20260509063104 22 0 0.0 0.0 0.00 0.00 0.00 92 1013.5
20260509061558 22 0 0.0 3.2 0.00 0.00 0.00 92 1013.8
20260509060117 22 0 0.0 1.6 0.00 0.00 0.00 92 1014.0
20260509054556 22 0 0.0 0.0 0.00 0.00 0.00 92 1014.2
20260509053114 23 0 0.0 3.2 0.00 0.00 0.00 91 1014.2
20260509051609 23 0 0.0 4.8 0.00 0.00 0.00 91 1014.4
20260509050106 23 0 0.0 0.0 0.00 0.00 0.00 92 1014.5
20260509044604 23 0 0.0 4.8 0.00 0.00 0.00 92 1014.5
20260509043100 24 334 1.6 6.4 0.00 0.00 0.00 91 1014.6
20260509041558 24 345 1.6 6.4 0.00 0.00 0.00 91 1014.6
20260509040109 24 20 4.8 8.0 0.00 0.00 0.00 90 1014.7
20260509034603 24 326 1.6 9.7 0.00 0.00 0.00 90 1014.6
20260509033131 25 347 6.4 12.9 0.00 0.00 0.00 89 1014.6